This demonstration page uses our WeatherBlox Daily Observations layout. Learn more.

Left ArrowRight Arrow

Hourly Observations for April 2, 2020

Temp ( °F °C ) Dew Point ( °F °C ) Humidity (%) Winds ( mph kmh ) Pressure ( in mb ) Visibility ( mi km ) Precip ( " mm )
12:51 am 00:51 Clear 64 17.8 28 -2.2 26 26 NW 12 19 29.72 1006 10 16.0934 0 0
1:51 am 01:51 Clear 60 15.6 29 -1.7 31 31 S 6 9 29.72 1007 10 16.0934 0 0
2:51 am 02:51 Clear 53 11.7 30 -1.1 41 41 E 7 11 29.74 1007 10 16.0934 0 0
3:51 am 03:51 Clear 54 12.2 30 -1.1 40 40 Calm 29.74 1007 10 16.0934 0 0
4:51 am 04:51 Clear 51 10.6 29 -1.7 43 43 VRB 5 7 29.76 1008 10 16.0934 0 0
5:51 am 05:51 Clear 50 10 29 -1.7 44 44 Calm 29.78 1009 10 16.0934 0 0
6:51 am 06:51 Sunny 50 10 32 0 50 50 S 3 6 29.82 1010 10 16.0934 0 0
7:51 am 07:51 Sunny 60 15.6 32 0 35 35 Calm 29.82 1010 10 16.0934 0 0
8:51 am 08:51 Sunny 66 18.9 34 1.1 30 30 S 6 9 29.82 1010 10 16.0934 0 0
9:51 am 09:51 Sunny 71 21.7 30 -1.1 22 22 VRB 3 6 29.81 1009 10 16.0934 0 0
10:51 am 10:51 Sunny 73 22.8 27 -2.8 18 18 VRB 3 6 29.79 1009 10 16.0934 0 0
11:51 am 11:51 Sunny 76 24.4 28 -2.2 17 17 VRB 6 9 29.76 1008 10 16.0934 0 0
12:51 pm 12:51 Sunny 78 25.6 29 -1.7 16 16 S 5 7 29.73 1007 10 16.0934 0 0
1:51 pm 13:51 Sunny 79 26.1 29 -1.7 16 16 VRB 3 6 29.71 1006 10 16.0934 0 0
2:51 pm 14:51 Mostly Sunny 82 27.8 28 -2.2 14 14 VRB 7 11 29.69 1006 10 16.0934 0 0
6:51 pm 18:51 Clear 73 22.8 26 -3.3 17 17 NW 15 24 29.73 1007 10 16.0934 0 0
7:51 pm 19:51 Clear 68 20 28 -2.2 22 22 NW 10 17 29.74 1007 10 16.0934 0 0
8:51 pm 20:51 Clear 64 17.8 29 -1.7 27 27 WNW 12 19 29.78 1008 10 16.0934 0 0
9:51 pm 21:51 Clear 61 16.1 31 -0.6 32 32 NW 13 20 29.79 1009 10 16.0934 0 0
10:51 pm 22:51 Clear 61 16.1 31 -0.6 32 32 NW 14 22 29.79 1009 10 16.0934 0 0
11:51 pm 23:51 Clear 61 16.1 31 -0.6 32 32 NW 13 20 29.79 1009 10 16.0934 0 0

Powered by AerisWeather